Location: La For�t-Chabrouty
(45.7470°N, 1.6743°E)
Time: 13:08:41
(UTC+00:00)

Daily predictions for brighter satellites

Satellite Brightness Start Highest point End
(mag) Time Altitude Azimuth Time Altitude Azimuth Time Altitude Azimuth
BREEZE-M DEB (TANK) 3.5 19:50:26 10° SSW 19:53:26 37° SE 20:01:31 10° ENE
BREEZE-M DEB (TANK) 3.3 19:56:29 10° WNW 19:59:18 72° NNE 20:06:53 10° ESE
MOS 1 4.3 19:54:33 10° SSE 20:00:12 82° ENE 20:05:53 10° NNW
Cosmos 1538 Rocket 4.5 19:56:00 10° S 20:00:49 39° ESE 20:05:37 10° NE
Resurs 01 Rocket 2.0 19:59:36 10° SE 20:03:53 50° ENE 20:08:13 10° N
Cosmos 2151 4.0 20:01:59 10° SSE 20:05:34 27° E 20:09:12 10° NNE
ERS-2 2.3 20:02:37 10° NNE 20:06:12 51° ESE 20:09:45 10° S
Cosmos 44 Rocket 3.9 20:01:17 10° SW 20:06:28 69° NW 20:11:43 10° NNE
Cosmos 2098 Rocket 2.9 20:03:57 10° SSE 20:06:50 38° E 20:10:11 10° NNE
Gbstr 26 Del rocket 3.6 20:04:41 10° WNW 20:08:16 43° NNE 20:12:01 10° E
USA 186 4.2 20:10:29 10° SW 20:12:48 20° W 20:15:02 10° NW
Ariane Rocket 3.2 20:13:11 10° S 20:18:16 78° WSW 20:23:22 10° NNW
SL-16 R/B 3.1 20:18:04 10° NNW 20:23:16 35° NE 20:28:03 12° ESE
Cosmos 1782 4.2 20:24:15 10° NNE 20:27:32 23° ENE 20:30:03 14° ESE
Cosmos 371 Rocket 3.3 20:23:23 10° NNW 20:28:13 82° ENE 20:32:51 11° SSE
ARIANE 5 R/B 3.8 20:26:51 13° ESE 20:30:10 28° ENE 20:33:59 10° N
Cosmos 1271 Rocket 3.6 20:30:28 10° N 20:34:12 36° ENE 20:36:55 16° SE
USA 276 2.6 20:32:49 10° WNW 20:35:56 55° NNE 20:38:32 14° E
SPOT 1/Viking Rocket 3.7 20:31:18 11° SSE 20:36:13 64° ENE 20:41:24 10° N
BREEZE-M DEB (TANK) 2.3 20:34:15 10° WNW 20:37:06 87° SSW 20:43:14 13° ESE
Cosmos 1076 Rocket 3.7 20:33:34 10° SSW 20:37:55 78° W 20:42:18 10° N
Cosmos 1697 Rocket 4.3 20:34:34 10° NW 20:39:27 30° WSW 20:44:19 10° SSW
OBJECT-B 3.8 20:39:29 10° WSW 20:40:51 12° W 20:42:14 10° WNW
Cosmos 1151 Rocket 4.2 20:37:25 10° NNE 20:41:11 28° ENE 20:43:40 17° ESE
ATLAS 2AS CENTAUR R/B 3.8 20:36:21 10° WSW 20:44:06 56° NW 20:51:40 10° NE
Cosmos 923 Rocket 4.4 20:42:08 10° S 20:47:10 44° ESE 20:52:14 10° NNE
ATLAS 3B R/B 3.0 20:43:23 10° NW 20:50:28 70° WSW 20:56:42 15° SSE
Terra 3.0 20:47:56 16° ESE 20:50:47 28° ENE 20:54:49 10° N
SPOT 5 3.4 20:50:48 19° SE 20:53:22 37° ENE 20:57:24 10° N
USA 267 4.2 20:50:33 10° ENE 20:55:26 22° SE 20:59:02 14° SSE
Cosmos 2082 Rocket 3.3 20:50:06 10° SW 20:55:32 48° WNW 21:01:02 10° NNE
Cosmos 1092 Rocket 4.0 20:49:36 10° S 20:55:49 73° E 21:02:08 10° NNE
Meteor 2-19 Rocket 4.4 20:49:54 10° S 20:55:56 84° E 21:02:02 10° N
Cosmos 1633 4.1 20:53:59 10° SW 20:57:20 36° WNW 21:00:43 10° N
Cosmos 2278 4.4 20:54:05 10° NW 20:59:31 49° WSW 21:04:37 12° S
BREEZE-M DEB (TANK) 2.8 20:59:09 10° W 21:01:43 43° NNW 21:03:12 13° ENE
ERS-1 Rocket 3.3 21:00:35 21° SE 21:03:44 52° ENE 21:08:36 10° N
Cosmos 332 Rocket 3.9 21:00:39 10° NNW 21:05:33 76° WSW 21:08:59 20° SSE
SL-27 R/B 4.3 21:06:23 17° E 21:06:23 17° E 21:08:18 10° NE
Cosmos 2360 Rocket 3.2 21:01:29 10° NNW 21:06:39 35° NE 21:10:08 18° ESE
Cosmos 158 Rocket 4.1 21:01:53 10° SSW 21:07:02 78° WNW 21:12:21 10° NNE
Cosmos 2026 Rocket 4.0 21:02:29 10° S 21:08:48 74° E 21:15:04 10° NNE
GP-B 3.0 21:08:49 10° N 21:13:18 80° E 21:16:14 21° S
ISS -3.1 21:11:46 10° WNW 21:15:00 42° SW 21:15:56 33° S
Cosmos 2333 Rocket 3.8 21:12:28 10° N 21:16:59 24° NE 21:20:38 13° E
Spot 2 Rocket 3.5 21:14:48 21° SSE 21:18:18 84° WSW 21:23:27 10° NNW
Meteor 1-26 Rocket 4.4 21:13:43 10° NNW 21:19:41 80° W 21:23:54 19° S
Cosmos 1371 Rocket 4.4 21:15:22 10° NNW 21:20:38 53° ENE 21:23:22 27° SE
Cosmos 2112 Rocket 4.1 21:17:49 17° S 21:21:45 57° ESE 21:26:55 10° NNE
Cosmos 1812 3.2 21:18:13 10° N 21:21:57 45° ENE 21:23:04 34° ESE
Cosmos 1680 Rocket 3.5 21:17:27 12° S 21:22:14 67° ESE 21:27:28 10° NNE
Cosmos 220 Rocket 4.2 21:19:47 10° NNW 21:24:05 58° ENE 21:25:50 33° SE
CZ-2C R/B 4.2 21:20:42 10° N 21:25:11 59° WNW 21:29:33 10° SSW
Okean 3 Rocket 3.5 21:24:58 27° S 21:27:22 70° E 21:31:53 10° NNE
Cosmos 1980 Rocket 4.0 21:23:15 10° NW 21:27:40 24° WSW 21:32:04 10° SSW
USA 245 4.5 21:25:06 16° S 21:28:59 50° WSW 21:33:10 10° NNW
USA 234 4.4 21:24:24 10° E 21:30:24 40° NNE 21:36:25 10° NW
Cosmos 2322 Rocket 2.1 21:33:24 10° NNW 21:39:05 86° WSW 21:41:46 32° SSE
Resurs 01 Rocket 4.0 21:37:40 10° SW 21:40:40 18° W 21:43:41 10° NW
Cosmos 1408 Rocket 3.8 21:40:13 41° SE 21:41:16 51° E 21:45:29 10° NNE
Meteor 2-14 Rocket 4.4 21:43:59 24° S 21:47:52 82° E 21:54:02 10° N
Cosmos 2084 3.2 21:48:51 28° SSW 21:50:55 77° SE 21:55:05 10° NE
Cosmos 1553 Rocket 3.9 21:46:18 10° N 21:52:25 83° W 21:55:36 30° S
CZ-4B DEB 4.1 21:53:29 80° ENE 21:53:29 80° ENE 21:56:38 10° N
Gbstr 26 Del rocket 3.0 21:51:25 10° WNW 21:55:05 50° SW 21:55:26 48° SSW
Cosmos 2266 Rocket 4.2 21:53:29 35° SSE 21:55:50 53° E 22:01:53 10° NNE
Cosmos 1862 3.2 21:57:03 50° SSW 21:58:03 86° W 22:02:03 10° N
Cosmos 2219 Rocket 3.1 21:55:24 10° NNW 22:00:36 37° NE 22:02:58 26° E
Cosmos 1624 Rocket 4.0 21:55:56 10° NNW 22:01:10 81° WSW 22:02:57 42° S
Cosmos 1782 4.5 22:00:21 10° NNW 22:03:49 28° W 22:05:38 20° SW
NOSS 2-1 (E) 2.8 22:05:22 74° NE 22:05:22 74° NE 22:08:30 10° NE
Cosmos 2228 Rocket 3.9 22:01:26 10° N 22:05:33 36° ENE 22:06:05 35° E
Cosmos 1515 Rocket 3.5 22:01:18 10° N 22:05:46 89° E 22:06:43 55° S
ARIANE 5 R/B 4.0 22:04:24 21° SW 22:06:32 32° W 22:10:32 10° NNW
H-2A R/B 3.3 22:02:19 10° NNE 22:06:32 77° ESE 22:07:15 59° S
SL-16 R/B 3.1 22:02:09 10° NW 22:07:26 40° WSW 22:09:55 27° SSW
NOSS 3-1 (C) 4.2 22:02:17 10° NW 22:09:39 68° NE 22:14:30 28° ESE
COSMOS 2455 3.2 22:09:10 40° SE 22:10:04 42° ESE 22:15:42 10° NE
Cosmos 2333 4.4 22:04:46 10° NNW 22:10:20 60° ENE 22:12:13 39° ESE
Cosmos 2237 4.4 22:06:06 10° NNW 22:11:45 64° WSW 22:13:45 39° S
USA 276 4.0 22:09:10 10° W 22:10:46 23° WSW 22:10:46 23° WSW
Cosmos 1420 Rocket 4.0 22:06:49 10° NNW 22:12:11 85° ENE 22:13:43 48° SSE
COSMOS 2428 3.6 22:10:00 10° NNW 22:15:22 40° NE 22:17:35 29° E
Cosmos 1655 Rocket 4.0 22:12:44 35° S 22:15:40 84° E 22:22:06 10° N
Meteor 2-6 Rocket 4.5 22:11:28 10° NNW 22:16:47 57° W 22:18:53 35° SSW
Spot 4 4.4 22:21:45 39° E 22:22:40 44° ENE 22:27:14 10° N
S3M 4.1 22:16:20 10° NNW 22:22:43 74° W 22:25:25 37° S
USA 229 DEB 4.4 22:16:40 10° NNW 22:23:48 55° NE 22:28:16 25° ESE
USA 229 4.4 22:16:46 10° NNW 22:23:53 54° NE 22:28:23 25° ESE
ATLAS 5 CENTAUR R/B 3.3 22:22:09 10° NNW 22:27:13 39° NE 22:30:39 22° E
Cosmos 1174 4.3 22:24:22 10° NNW 22:26:29 42° NNW 22:26:29 42° NNW
Terra 2.9 22:26:50 29° SW 22:28:23 36° W 22:32:48 10° NNW
COSMOS 2487 4.0 22:31:49 27° NE 22:31:49 27° NE 22:33:38 10° NNE
SPOT 5 4.4 22:30:02 18° WSW 22:31:36 22° W 22:35:01 10° NW
Cosmos 1452 Rocket 3.6 22:26:28 10° NNW 22:31:42 66° ENE 22:32:49 51° ESE
ALOS 2 3.7 22:33:57 31° E 22:34:24 31° ENE 22:38:17 10° N
USA 267 3.1 22:32:32 10° NE 22:39:07 77° SE 22:45:40 10° SW
SL-27 R/B 4.0 22:39:50 29° W 22:40:39 33° WNW 22:43:58 10° N
Cosmos 2056 Rocket 4.5 22:36:14 10° NW 22:41:08 37° WSW 22:42:28 32° SW
Meteor 1-27 Rocket 3.7 22:37:08 10° NNW 22:42:47 76° W 22:44:14 51° S
NOSS 3-1 (A) 4.2 22:36:57 10° NW 22:44:21 69° NE 22:48:48 31° ESE
Cosmos 1805 Rocket 3.4 22:49:13 83° ESE 22:49:15 83° E 22:53:43 10° N
Cosmos 2360 Rocket 2.9 22:45:29 10° NW 22:50:42 40° WSW 22:51:53 36° SW
IRIDIUM 104 4.3 22:46:07 10° N 22:51:20 75° W 22:52:18 58° SSW
Meteor 1-20 Rocket 4.1 22:54:51 60° SSE 22:55:44 72° E 23:01:24 10° NNE
Cosmos 1110 Rocket 4.3 22:52:28 10° NNW 22:57:45 58° ENE 22:58:40 51° ESE
Cosmos 1500 Rocket 4.4 22:59:40 38° WSW 23:00:28 42° WNW 23:04:42 10° N
Cosmos 2333 Rocket 2.2 22:56:09 10° NNW 23:01:46 67° WSW 23:02:38 58° SSW
Cosmos 1331 Rocket 4.2 22:58:00 10° NNW 23:03:11 58° ENE 23:03:58 52° E
Cosmos 1244 Rocket 4.5 23:03:47 55° SSE 23:05:01 68° E 23:11:10 10° NNE
Cosmos 972 Rocket 4.3 23:07:27 46° SW 23:08:50 64° WNW 23:13:51 10° NNE
COBE Rocket 4.0 23:09:07 55° WSW 23:09:19 55° W 23:13:56 10° NNW
Cosmos 2322 3.8 23:06:21 10° NNW 23:11:59 59° WSW 23:12:44 54° SW
USA 234 3.2 23:10:02 36° ESE 23:12:58 82° NE 23:19:33 10° NW
NOSS 0 Rocket 4.1 23:08:04 10° NNW 23:14:17 65° ENE 23:16:01 46° ESE
Cosmos 2297 Rocket 3.2 23:17:11 30° E 23:17:11 30° E 23:21:43 10° NE
Cosmos 468 4.5 23:16:08 64° SW 23:16:54 78° WNW 23:22:09 10° NNE
Lacrosse 5 3.5 23:21:59 23° E 23:21:59 23° E 23:24:17 10° ENE
Cosmos 2322 Rocket 4.3 23:19:47 10° WNW 23:22:12 13° W 23:23:35 12° WSW
Cosmos 2237 Rocket 2.8 23:16:56 10° NNW 23:22:27 48° ENE 23:24:02 38° ESE
Cosmos 2084 Rocket 4.4 23:19:40 10° NNW 23:23:39 41° NE 23:24:07 39° ENE
Cosmos 1500 4.1 23:26:57 46° NNE 23:26:57 46° NNE 23:29:48 10° NNE
Meteor 1-18 Rocket 4.2 23:20:10 10° N 23:26:04 80° ENE 23:26:57 65° SSE
Cosmos 1470 Rocket 4.4 23:29:03 41° ENE 23:29:03 41° ENE 23:32:30 10° NNE
Cosmos 2227 Rocket 3.4 23:28:53 28° E 23:28:53 28° E 23:33:18 10° NE
Sich 1 3.6 23:28:46 48° W 23:28:49 48° WNW 23:33:03 10° N
Meteor 1-25 Rocket 4.4 23:30:16 52° SW 23:31:22 64° WNW 23:36:55 10° N
Cosmos 2285 Rocket 4.3 23:25:25 10° NNW 23:31:29 52° WSW 23:32:33 47° SW
Okean 1 3.9 23:28:30 10° NNW 23:31:46 55° NW 23:31:46 55° NW
Cosmos 1633 Rocket 3.2 23:33:06 71° NNE 23:33:06 71° NNE 23:37:02 10° N
Cosmos 494 Rocket 4.0 23:33:16 62° WSW 23:33:53 69° WNW 23:39:01 10° NNE
Cosmos 1666 Rocket 3.7 23:37:07 67° NW 23:37:07 67° NW 23:41:18 10° N
Cosmos 2219 Rocket 2.9 23:39:26 10° NW 23:44:32 37° WSW 23:44:40 37° WSW
SL-08 R/B 4.4 23:45:17 60° SSW 23:46:31 81° W 23:52:43 10° N
Meteor 1-19 Rocket 4.4 23:43:32 10° NNW 23:49:02 56° W 23:49:32 54° WSW
SL-16 R/B 3.7 23:44:36 10° N 23:49:36 31° NE 23:52:42 19° E
Cosmos 1269 Rocket 4.1 23:50:05 61° ESE 23:50:05 61° ESE 23:55:17 10° NNE
PSLV R/B 4.3 23:47:50 10° NNE 23:52:12 50° E 23:52:12 50° E
Resurs 1-4 Rocket 4.5 23:53:08 10° ENE 23:54:07 10° E 23:55:05 10° E
